星链-4491 (STARLINK-4491 )

导读

STARLINK-4491是美国SpaceX公司星链(Starlink)星座中的一颗互联网卫星,于2022年8月10日发射入轨,属于星链Group 4批次卫星。该卫星运行在近地轨道,当前运行高度约548公里,质量约297公斤,依托猎鹰9号火箭完成发射,主要为全球偏远地区提供高速宽带互联网服务,是星链大规模低轨星座组网的重要组成部分。

基本信息
目录编号:
53408
目录名称:
STARLINK-4491
国际标识:
2022-097W
轨道中心:
EARTH
卫星名称:
星链-4491
卫星全名:
星链-4491 (STARLINK-4491 )
卫星状态:
在轨 (已飞行1493 天)
发射日期:
2022-08-10 UTC
国别 :
美国 (US)
星等 :
--
该卫星已列入 空间交会检测服务 Space Conjunction Data Service (SCDS) ,当前飞行风险评估等级: 无高风险
轨道信息
数据来源 国际轨道数据
星历时间: 2026-09-11T08:00:04+0800
10小时前
查看轨道信息
半长轴: 6894.743km
偏心率: 0.0001859
轨道倾角: 53.160°
近地点辐角 99.233°
升交点赤经 1.350°
平近点角 116.575°
近地点: 515.324km
远地点: 517.888km
周期: 94.959分钟
每日圈数: 15.164415
详细信息
固有亮度:
5
最大亮度:
2.5
卫星平台:
Starlink v1.5
覆盖范围:
全球
运营商:
太空探索技术公司
运营商所在国:
美国
制造商(研发单位):
太空探索技术公司
制造商所在国:
美国
使用方式:
暂无
卫星简介
星链(Starlink)计划是由太空探索技术公司(SpaceX)提出的一个巨型低轨卫星互联网星座项目,计划在2019年至2024年间在太空搭建由约1.2万颗卫星组成的“星链”网络,其中1584颗将部署在地球上空550千米处的近地轨道,并从2020年开始工作。该卫星仍在工作。
2D轨道图
3D轨道图
轨道高度分析图
轨道倾角分析图
轨道综合分析图
查看轨道综合分析图
交会数据列表
事件ID 空间交会对象 最接近时刻(TCA) 交会距离 交会风险概率(CRP) 交会风险指数(CRI) 操作
CDM_260911-124405-340806-844821
HAWK-14A (68448)
2026-09-11T
12:44:03+0000
2.805 km
极远距离
1.425303E-6 低风险 0.38
与全量物体交会距离演化趋势
与全量物体交会风险概率演化趋势